Phoenix, AZ

6:59 AM MST on July 21, 2017 (GMT -0700)
Phoenix Sky Harbor International

Weather History for KPHX - August, 2013

Change the Weather History Date:

Wednesday, August 28, 2013

  Actual Average Record
Temperature  
Mean Temperature 95 °F 93 °F  
Max Temperature 107 °F 104 °F 113 °F (1998)
Min Temperature 83 °F 82 °F 64 °F (1920)
Degree Days  
Heating Degree Days 0 0  
Month to date heating degree days 0 0  
Since 1 June heating degree days 0 0  
Since 1 July heating degree days 0 0  
Cooling Degree Days 30 28  
Month to date cooling degree days 851 802  
Year to date cooling degree days 3810 3386  
Since 1 June cooling degree days 2712 2500  
Growing Degree Days 46 (Base 50)    
Moisture  
Dew Point 61 °F    
Average Humidity 32    
Maximum Humidity 44    
Minimum Humidity 20    
Precipitation  
Precipitation 0.00 in 0.03 in 0.94 in (2008)
Month to date precipitation 0.36 0.92  
Year to date precipitation 4.74 5.20  
Snow  
Snow 0.00 in - - ()
Month to date snowfall 0.0  
Year to date snowfall 0.0  
Since 1 July snowfall 0.0  
Snow Depth 0.00 in    
Sea Level Pressure  
Sea Level Pressure 29.76 in    
Wind  
Wind Speed 11 mph (SSE)    
Max Wind Speed 22 mph    
Max Gust Speed 32 mph    
Visibility 10 miles    
Events Thunderstorm    
T = Trace of Precipitation, MM = Missing Value Source: NWS Daily Summary

Daily Weather History Graph

Daily Weather History Graph

Search for Another Location

Airport or City:

Trip Planner

Search our weather history database for the weather conditions in past years. The results will help you decide how hot, cold, wet, or windy it might be!

Date:

Astronomy

Aug. 28, 2013 Rise Set
Actual Time 5:59 AM MST 6:58 PM MST
Civil Twilight 5:34 AM MST 7:23 PM MST
Nautical Twilight 5:03 AM MST 7:53 PM MST
Astronomical Twilight 4:32 AM MST 8:24 PM MST
Moon No Moon Rise 1:30 PM MST (8/28)
Length of Visible Light 13h 49m
Length of Day
12h 58m
Last Quarter, 46% of the Moon is Illuminated
Aug 28
Last Quarter
Sep 5
New
Sep 12
First Quarter
Sep 19
Full
Sep 26
Last Quarter

Hourly Weather History & Observations

Time (MST) Temp. Heat Index Dew Point Humidity Pressure Visibility Wind Dir Wind Speed Gust Speed Precip Events Conditions
12:51 AM 91.0 °F 93.8 °F 66.0 °F 44% 29.69 in 10.0 mi ESE 4.6 mph - N/A   Partly Cloudy
1:51 AM 91.0 °F 90.2 °F 59.0 °F 34% 29.68 in 10.0 mi East 12.7 mph - N/A   Partly Cloudy
2:51 AM 89.1 °F 88.8 °F 60.1 °F 38% 29.68 in 10.0 mi ESE 9.2 mph - N/A   Partly Cloudy
3:51 AM 88.0 °F 87.6 °F 60.1 °F 39% 29.69 in 10.0 mi SE 8.1 mph - N/A   Clear
4:51 AM 88.0 °F 87.6 °F 60.1 °F 39% 29.70 in 10.0 mi SSE 6.9 mph - N/A   Clear
5:51 AM 87.1 °F 86.7 °F 60.1 °F 40% 29.72 in 10.0 mi ESE 5.8 mph - N/A   Partly Cloudy
6:51 AM 88.0 °F 87.9 °F 61.0 °F 40% 29.74 in 10.0 mi ESE 6.9 mph - N/A   Partly Cloudy
7:51 AM 93.0 °F 92.3 °F 59.0 °F 32% 29.76 in 10.0 mi East 10.4 mph - N/A   Partly Cloudy
8:51 AM 97.0 °F 96.1 °F 57.9 °F 27% 29.77 in 10.0 mi ENE 16.1 mph - N/A   Partly Cloudy
9:51 AM 98.1 °F 98.1 °F 60.1 °F 28% 29.77 in 10.0 mi SE 11.5 mph - N/A   Partly Cloudy
10:51 AM 100.0 °F 100.2 °F 59.0 °F 26% 29.77 in 10.0 mi ESE 13.8 mph - N/A   Partly Cloudy
11:51 AM 102.9 °F 103.0 °F 57.9 °F 23% 29.75 in 10.0 mi SSE 13.8 mph 21.9 mph N/A   Partly Cloudy
12:51 PM 105.1 °F 105.7 °F 59.0 °F 22% 29.74 in 10.0 mi SSE 12.7 mph 20.7 mph N/A   Partly Cloudy
1:51 PM 105.1 °F 105.0 °F 57.9 °F 21% 29.72 in 10.0 mi South 12.7 mph 25.3 mph N/A   Partly Cloudy
2:51 PM 105.1 °F 105.0 °F 57.9 °F 21% 29.69 in 10.0 mi SSE 11.5 mph - N/A   Partly Cloudy
3:51 PM 107.1 °F 107.4 °F 57.9 °F 20% 29.67 in 10.0 mi South 5.8 mph - N/A   Partly Cloudy
4:51 PM 106.0 °F 106.4 °F 57.9 °F 21% 29.66 in 10.0 mi South 9.2 mph - N/A   Scattered Clouds
5:51 PM 102.9 °F 103.0 °F 57.9 °F 23% 29.68 in 10.0 mi ESE 15.0 mph 21.9 mph N/A   Mostly Cloudy
6:51 PM 102.0 °F 101.1 °F 55.9 °F 22% 29.70 in 10.0 mi SE 11.5 mph - N/A   Mostly Cloudy
7:22 PM 97.0 °F 98.3 °F 63.0 °F 32% 29.79 in 10.0 mi South 15.0 mph 23.0 mph N/A   Mostly Cloudy
7:51 PM 96.1 °F 97.3 °F 63.0 °F 33% 29.75 in 10.0 mi South 16.1 mph 23.0 mph N/A   Mostly Cloudy
8:51 PM 91.9 °F 94.5 °F 66.0 °F 42% 29.81 in 8.0 mi WNW 17.3 mph 25.3 mph N/A   Overcast
9:04 PM 88.0 °F 91.4 °F 68.0 °F 51% 29.89 in 9.0 mi WNW 19.6 mph - N/A   Overcast
9:45 PM 86.0 °F 89.4 °F 68.0 °F 55% 29.93 in 10.0 mi NNW 11.5 mph 16.1 mph N/A Thunderstorm Thunderstorm
9:51 PM 86.0 °F 88.8 °F 66.9 °F 53% 29.88 in 10.0 mi NNW 9.2 mph 16.1 mph N/A Thunderstorm Thunderstorm
10:48 PM 86.0 °F 88.2 °F 66.2 °F 51% 29.92 in 10.0 mi West 12.7 mph - N/A   Mostly Cloudy
10:51 PM 86.0 °F 88.2 °F 66.0 °F 51% 29.86 in 10.0 mi WSW 10.4 mph - N/A   Mostly Cloudy
11:51 PM 82.9 °F 85.8 °F 68.0 °F 60% 29.87 in 10.0 mi WSW 9.2 mph - N/A   Mostly Cloudy